Showing default

GJZ 04, 62293

Orbit data source: Space-Track

GJZ 04, 62293 is a payload satellite owned by CASC (CN) in LEO that was launched on Thu, 12 Dec 2024 UTC via a CHANG ZHENG 2D/YZ-3 launch vehicle from the Jiuquan Satellite Launch Center, China (JSC). Payload-class satellites include a variety of spacecraft equipped with specific instruments for various scientific and technological missions. These include communications satellites like Starlink; space stations such as the ISS; scientific satellites like the Hubble; Earth observation satellites from companies like Planet Labs, Umbra, and HawkEye 360; GPS; miniature CubeSats for education and research; and military/defense satellites.

Loading next visibility...
Identifier
62293, 2024-238D
Orbit
LEO
Country
Flag of CNCN / PRC
Related business
Manufacturer
HITSAT
Mission
Operational Civil Communications
Bus & Motor
HARBFLAT, Unknown motor
Mass
~150 kg wet, ~150 kg dry
Launch date (UTC)
2024-12-12 (11 months ago)
Launch vehicle
CHANG ZHENG 2D/YZ-3
Launch site
Jiuquan Satellite Launch Center, China (JSC)
Object type
Payload
Rocket body
Debris
Shape & HBR
Box + 2 Pan, 1.5 m
Radar Cross Section
0.240 m², Large (>1 m²)

Expand to show TLE details & history
Last TLE update: 6 hours ago

TLE from 6 hours ago
0 GJZ 04
1 62293U 24238D   25311.23059999  .00000051  00000-0  17709-3 0  9992
2 62293  59.9131 222.8449 0018090 145.7333 214.4846 13.75162441 45380
Epoch: 2025-11-07T05:32Z
TLE epoch observation values (Epoch: 2025-11-07T05:32:03.839Z)
Latitude
0.00002°
Longitude
93.15137°
Altitude
993.562 km
Speed
7.35 km/s
True Right ascension
14h 51m 22s
True Declination
0° 00' 00"
Sunlit
Object was in daylight at epoch
Visualization orbit readout
Latitude
Unknown
Longitude
Unknown
Altitude
Unknown
Speed
Unknown
Apparent Right ascension
Unknown
Apparent Declination
Unknown
Sunlit
N/A
Visualization observer readout
Local Sidereal Time
07:46:01
Azimuth
Unknown
Elevation
Unknown
Doppler factor
Unknown
Orbital elements
Apogee altitude
993.675 km
Perigee altitude
967.052 km
Semi-major axis
7,358.501 km
Eccentricity
0.00181
Inclination
59.9131°
RAAN
222.8449°
Arg. of periapsis
145.7333°
True anomaly
214.36745°
Mean anomaly
214.4846°
Eccentric anomaly
214.426°
Mean motion
3.43842 °/min
Orbital period
104.7 mins
BSTAR
0.00017709
Loading maneuver chart data...
Computing Atmospheric mass density...
Loading historical data...
Loading historical data...
Loading historical data...
Loading historical data...
Loading historical data...
Loading historical data...
Loading historical data...
Other satellites on launch #238 in the year 2024 (2024-12-12 UTC)

Documentation

Showing up to 5 results
|